Hinesville, GA

6:38 AM EST on February 08, 2016 (GMT -0500)
Wright Army Air Field

Weather History for KLHW - May, 2013

Change the Weather History Date:

Sunday, May 26, 2013

  Actual Average Record
Temperature  
Mean Temperature 68 °F -  
Max Temperature 87 °F 87 °F 96 °F (2004)
Min Temperature 50 °F 65 °F 49 °F (1979)
Cooling Degree Days 4    
Growing Degree Days 18 (Base 50)    
Moisture  
Dew Point 54 °F    
Average Humidity 62    
Maximum Humidity 98    
Minimum Humidity 27    
Precipitation  
Precipitation 0.00 in - - ()
Sea Level Pressure  
Sea Level Pressure 30.20 in    
Wind  
Wind Speed 3 mph (SSE)    
Max Wind Speed 10 mph    
Max Gust Speed -    
Visibility 8 miles    
Events      
Averages and records for this station are not official NWS values.
T = Trace of Precipitation, MM = Missing Value Source: NWS Daily Summary

Daily Weather History Graph

Daily Weather History Graph

Search for Another Location

Airport or City:

Trip Planner

Search our weather history database for the weather conditions in past years. The results will help you decide how hot, cold, wet, or windy it might be!

Date:

Astronomy

May. 26, 2013 Rise Set
Actual Time 6:23 AM EDT 8:23 PM EDT
Civil Twilight 5:55 AM EDT 8:51 PM EDT
Nautical Twilight 5:22 AM EDT 9:24 PM EDT
Astronomical Twilight 4:46 AM EDT 10:00 PM EDT
Moon 10:11 PM EDT (5/26) 7:50 AM EDT (5/26)
Length of Visible Light 14h 55m
Length of Day
14h 00m
Waning Gibbous, 97% of the Moon is Illuminated
May 26
Waning Gibbous
May 31
Last Quarter
Jun 8
New
Jun 16
First Quarter
Jun 23
Full

Hourly Weather History & Observations

Time (EDT) Temp. Heat Index Dew Point Humidity Pressure Visibility Wind Dir Wind Speed Gust Speed Precip Events Conditions
12:58 AM 55.2 °F - 52.2 °F 89% 30.21 in 10.0 mi East 2.3 mph - N/A   Clear
1:58 AM 53.6 °F - 51.8 °F 94% 30.20 in 10.0 mi Calm Calm - N/A   Clear
2:58 AM 52.2 °F - 50.9 °F 95% 30.19 in 10.0 mi Calm Calm - N/A   Clear
3:58 AM 52.0 °F - 51.4 °F 98% 30.18 in 10.0 mi Calm Calm - N/A   Clear
4:58 AM 50.9 °F - 50.0 °F 97% 30.20 in 10.0 mi North 1.2 mph - N/A   Clear
5:58 AM 50.5 °F - 50.0 °F 98% 30.21 in 10.0 mi North 2.3 mph - N/A   Clear
6:58 AM 52.0 °F - 51.4 °F 98% 30.23 in 10.0 mi Calm Calm - N/A   Clear
7:58 AM 56.1 °F - 54.1 °F 93% 30.25 in 10.0 mi North 1.2 mph - N/A   Clear
8:58 AM 64.9 °F - 58.8 °F 81% 30.26 in 10.0 mi WSW 3.5 mph - N/A   Clear
9:58 AM 73.2 °F - 59.0 °F 61% 30.27 in 10.0 mi SW 6.9 mph - N/A   Clear
10:58 AM 77.4 °F - 57.6 °F 50% 30.27 in 10.0 mi WSW 6.9 mph - N/A   Clear
11:58 AM 80.8 °F 80.8 °F 56.1 °F 43% 30.25 in 9.0 mi North 4.6 mph - N/A   Partly Cloudy
12:58 PM 81.3 °F 80.9 °F 54.9 °F 40% 30.24 in 5.0 mi Variable 5.8 mph - N/A   Haze
1:58 PM 84.6 °F - 49.8 °F 30% 30.22 in 6.0 mi South 8.1 mph - N/A   Haze
2:58 PM 84.9 °F - 50.9 °F 31% 30.20 in 6.0 mi Variable 3.5 mph - N/A   Haze
3:58 PM 87.3 °F - 50.2 °F 28% 30.18 in 8.0 mi West 5.8 mph - N/A   Clear
4:13 PM 86.0 °F - 50.0 °F 29% 30.17 in 2.5 mi Variable 4.6 mph - N/A   Haze
4:23 PM 87.8 °F - 50.0 °F 27% 30.16 in 3.0 mi Variable 5.8 mph - N/A   Haze
4:58 PM 86.4 °F - 50.7 °F 29% 30.17 in 3.0 mi Variable 2.3 mph - N/A   Haze
5:58 PM 83.5 °F 83.4 °F 59.7 °F 44% 30.16 in 10.0 mi SE 9.2 mph - N/A   Clear
6:58 PM 80.6 °F 81.1 °F 59.0 °F 48% 30.15 in 6.0 mi SE 10.4 mph - N/A   Haze
7:58 PM 76.3 °F - 57.2 °F 52% 30.17 in 7.0 mi SSE 5.8 mph - N/A   Clear
8:58 PM 71.6 °F - 55.4 °F 57% 30.18 in 8.0 mi SE 5.8 mph - N/A   Clear
9:58 PM 69.1 °F - 55.6 °F 62% 30.18 in 8.0 mi SE 4.6 mph - N/A   Clear
10:28 PM 68.0 °F - 55.4 °F 64% 30.18 in 9.0 mi SSE 3.5 mph - N/A   Clear
10:58 PM 67.3 °F - 56.7 °F 69% 30.20 in 10.0 mi SSE 2.3 mph - N/A   Clear
11:58 PM 64.4 °F - 57.0 °F 77% 30.20 in 10.0 mi SSW 2.3 mph - N/A   Clear